Tracking 20241 objects as of 25-Jan-2020
HD Live streaming from Space Station
objects crossing your sky now

CZ-4C DEB

Track CZ-4C DEB now!
10-day predictions


NORAD ID: 42672
Int'l Code: 2015-069E
Perigee: 591.1 km
Apogee: 818.1 km
Inclination: 98.1 °
Period: 98.7 minutes
Semi major axis: 7075 km
RCS: Unknown
Launch date: November 26, 2015
Source: People's Republic of China (PRC)
Launch site: Taiyaun Space Center, China (TSC)

Note: This is SATELLITE DEBRIS
aabbcc
Your satellite tracking list
Your tracking list is empty




NASA's NSSDC Master Catalog

Two Line Element Set (TLE):
1 42672U 15069E   20024.80747750  .00000189  00000-0  43462-4 0  9999
2 42672  98.0735 332.6555 0160424 167.7953 192.7206 14.58662260215802
Source of the keplerian elements: AFSPC